Regional Weather Roundup
Issued by NWS

Home | Current Version | Previous Version | Text Only | Print | Product List | Glossary On
Versions: 1 2 3 4 5 6 7 8 9 10 11 12 13 14 15 16 17 18 19 20 21 22 23 24 25 26 27 28 29 30 31 32 33 34 35 36 37 38 39 40 41 42 43 44 45 46 47 48 49 50
000
ASUS43 KMPX 090601
RWRMN
WEATHER ROUNDUP FOR MINNESOTA
NATIONAL WEATHER SERVICE TWIN CITIES/CHANHASSEN MN
1200 AM CST TUE FEB 09 2016


NOTE: "FAIR" INDICATES FEW OR NO CLOUDS BELOW 12,000 FEET WITH NO
SIGNIFICANT WEATHER AND/OR OBSTRUCTIONS TO VISIBILITY. N/A MEANS
CURRENT SKY AND/OR WEATHER CONDITIONS ARE NOT AVAILABLE.

MNZ060>063-068>070-090700-
   Twin Cities Metro

CITY           SKY/WX    TMP DP  RH WIND       PRES   REMARKS
TWIN CITIES    FLURRIES  12   4  70 N14G24    29.99S WCI  -3
6HR MIN TEMP:  12; 6HR MAX TEMP:  15; 6HR PCP: TRACE;

ST PAUL        CLOUDY    13   4  67 NW20G25   30.00S WCI  -5
CRYSTAL        CLOUDY    13   4  67 NW13      29.99S WCI  -2
BLAINE         CLOUDY    12   5  73 N18G28    29.99R WCI  -5
LAKEVILLE      CLOUDY    10   3  72 NW22      29.96S WCI  -9
EDEN PRAIRIE   CLOUDY    13   2  61 NW16G25   29.98S WCI  -3
6HR MIN TEMP:  13; 6HR MAX TEMP:  17; 6HR PCP: TRACE;

SOUTH ST PAUL  CLOUDY    13   4  68 N16G22    29.98S WCI  -3
LAKE ELMO      CLOUDY    12   5  73 N10G16    29.98S WCI  -1
$$
MNZ001>005-007-008-013>017-022>024-027-028-090700-
   Northwest Minnesota

CITY           SKY/WX    TMP DP  RH WIND       PRES   REMARKS
BEMIDJI        CLOUDY     3  -2  79 N14G21    30.09F WCI -14
HALLOCK        CLOUDY     3  -2  78 NW7       30.24F WCI  -9
ROSEAU         CLOUDY     1  -4  78 N10       30.18F WCI -14
WARROAD        CLOUDY     1  -2  85 NW7       30.16F WCI -11
CROOKSTON      CLEAR      3   0  85 N10       30.24F WCI -12
FOSSTON        CLOUDY     1  -4  78 N15       30.16F WCI -18
DETROIT LAKES  CLOUDY     7   3  85 N18G25    30.13F WCI -12
MOORHEAD       CLEAR      7   1  78 N20       30.22S WCI -13
PARK RAPIDS    CLOUDY     6  -2  69 N14       30.07R WCI -11
MAHNOMEN       CLOUDY     5   0  79 N21       30.15F WCI -16
$$
MNZ006-009>011-018-025>026-090700-
   North Central Minnesota

CITY           SKY/WX    TMP DP  RH WIND       PRES   REMARKS
BAUDETTE       MOCLDY     2  -3  80 NW12      30.11S WCI -15
FLAG ISLAND    CLOUDY     0  -4  85 NW14      30.14F WCI -19
INTL FALLS     CLOUDY     1  -5  75 N14       30.07S WCI -17
6HR MIN TEMP:   1; 6HR MAX TEMP:   4; 6HR PCP: TRACE;

WASKISH        CLOUDY     5   0  78 NW12G18   30.11F WCI -11
LONGVILLE      CLOUDY     3  -2  78 NW6       30.06R WCI  -8
GRAND RAPIDS   PTCLDY     1  -6  71 N18       30.01S WCI -19
CRANE LAKE     CLOUDY     1  -2  85 NW8       30.04S WCI -12
ORR            CLOUDY     1  -6  71 NW10      29.99R WCI -14
COOK           CLOUDY     1  -2  85 NW7       30.00S WCI -11
WALKER         FAIR       3  -3  74 NW12      30.08S WCI -13
$$
MNZ012-019>021-037-090700-
   Northeast Minnesota

CITY           SKY/WX    TMP DP  RH WIND       PRES   REMARKS
DULUTH         CLOUDY     3  -4  72 NW16G24   29.93S WCI -16
6HR MIN TEMP:   3; 6HR MAX TEMP:   7; 6HR PCP: TRACE;

ELY            CLOUDY     1  -2  85 NW7G17    29.94S WCI -11
HIBBING        CLOUDY     0  -5  79 NW15G25   29.99R WCI -19
EVELETH        CLOUDY     3  -4  72 NW13G20   29.98S WCI -14
DULUTH HARBOR  CLOUDY     9   0  66 NW14G20   30.02S WCI  -8
TWO HARBORS    CLOUDY     9   0  66 NW12G24   29.90S WCI  -6
SILVER BAY     CLOUDY     9   0  66 NW12G23   29.89S WCI  -6
GRAND MARAIS     N/A     11   1  64 VRB3      29.90S
G MARAIS ARPRT LGT SNOW   3  -2  78 NW16G30   29.77S WCI -16
$$
MNZ029>031-032-039>041-046>048-054>057-064-090700-
   West Central Minnesota

CITY           SKY/WX    TMP DP  RH WIND       PRES   REMARKS
FERGUS FALLS   CLOUDY     7   0  72 N23G32    30.18F WCI -14
WHEATON        CLEAR      9   3  78 NW17G26   30.21S WCI -10
MORRIS         MOCLDY     9   1  72 N25G31    30.12S HAZE    WCI -13
ALEXANDRIA     CLOUDY     7  -1  70 N16G25    30.07S WCI -11
ELBOW LAKE     CLOUDY     7   1  79 NW18G25   30.13S WCI -13
WADENA         MOCLDY     7   0  72 N18       30.08R WCI -12
GLENWOOD       CLOUDY     7   1  78 NW22G30   30.08R WCI -14
APPLETON       PTCLDY    10   1  67 N22G31    30.15R WCI  -9
BENSON         MOCLDY     9   1  72 N15G24    30.11R WCI  -8
ORTONVILLE     CLOUDY     9   1  72 N24G31    30.15S WCI -12
MADISON        PTCLDY    10   3  72 N23G35    30.16R WCI -10
WILLMAR        MOCLDY    10   3  72 NW22      30.08S WCI  -9
$$
MNZ033>034-036-042>043-049>051-058-059-090700-
   Central Minnesota

CITY           SKY/WX    TMP DP  RH WIND       PRES   REMARKS
ST CLOUD       CLOUDY    10   1  67 N14G29    30.02R WCI  -6
6HR MIN TEMP:  10; 6HR MAX TEMP:  14;

SAUK CENTRE    CLOUDY     8   1  73 N17G25    30.06R WCI -10
PAYNESVILLE    CLOUDY    10   3  75 NW14G22   30.05S WCI  -7
AITKIN         MOCLDY     7  -2  66 NW14G21   30.02S WCI -10
PINE RIVER     CLOUDY     5   0  78 N12G22    30.09S WCI -11
BRAINERD       MOCLDY     6  -1  73 N16G26    30.04S WCI -12
STAPLES        CLOUDY     7  -2  66 N21G26    30.07R WCI -13
LONG PRAIRIE   CLOUDY     9   3  78 NW15G22   30.05S WCI  -8
LITTLE FALLS   CLOUDY    10   1  67 NW8G17    30.05S WCI  -1
LITCHFIELD     CLOUDY    10   7  85 NW18      30.04R WCI  -8
BUFFALO        CLOUDY    11   3  70 NW14G23   30.03R WCI  -4
MAPLE LAKE     CLOUDY    12   5  74 NW20G25   30.03S WCI  -6
$$
MNZ037-044-045-052-053-090700-
   East Central Minnesota

CITY           SKY/WX    TMP DP  RH WIND       PRES   REMARKS
PRINCETON      CLOUDY    10   3  72 NW14      30.01S WCI  -5
MORA           CLOUDY    10   1  67 NW15      30.02S WCI  -6
CAMBRIDGE      CLOUDY    12   1  62 NW17G24   29.99S WCI  -5
RUSH CITY      CLOUDY    10   1  69 N14       30.00S WCI  -7
MOOSE LAKE     CLOUDY     9   0  66 N9G21     29.99S WCI  -5
HINCKLEY       CLOUDY    10   1  67 NW17G23   29.99S WCI  -7
CLOQUET        CLOUDY     3  -2  78 NW15G23   29.96R WCI -15
MCGREGOR       CLOUDY     5   0  78 NW10      30.02R WCI -10
$$
MNZ071>073-080-081-089-090-097-098-090700-
   Southwest Minnesota

CITY           SKY/WX    TMP DP  RH WIND       PRES   REMARKS
MONTEVIDEO     CLOUDY     9   3  78 N22G29    30.14S WCI -11
GRANITE FALLS  MOCLDY    10   4  75 NW18G26   30.14R WCI  -8
CANBY          PTCLDY    12   6  76 NW20      30.16R WCI  -6
MARSHALL       CLEAR      9   4  80 N28G33    30.10R WCI -13
REDWOOD FALLS  CLOUDY    10   2  69 N13G28    30.08R WCI  -5
OLIVIA         CLOUDY    12   5  73 N26G32    30.07R WCI  -8
PIPESTONE      CLEAR     10   1  67 N21G29    30.08R WCI  -9
WINDOM         LGT SNOW   9   3  78 NW32      30.03R WCI -15
WORTHINGTON    CLOUDY   N/A N/A N/A N25       30.05R
JACKSON        CLOUDY    10   3  72 NW28G36   30.01S HAZE    WCI -11
TRACY          CLEAR     10   5  81 N23G35    30.09R WCI -11
SLAYTON        CLOUDY     8   5  87 NW23G33   30.06R FOG     WCI -13
$$
MNZ065>067-074>077-082>085-091>093-090700-
   South Central Minnesota

CITY           SKY/WX    TMP DP  RH WIND       PRES   REMARKS
MANKATO        CLOUDY   N/A N/A N/A NW23G29   29.99R
NEW ULM        CLOUDY    10   3  72 N21G28    30.02R WCI  -9
ST JAMES       CLOUDY    10   7  85 NW25      30.04R WCI -10
FAIRMONT       CLOUDY    10   1  67 NW26G35   29.99S WCI -11
GLENCOE        CLOUDY    13   7  78 NW16G22   30.02R WCI  -3
FARIBAULT      CLOUDY    12   5  73 NW15G28   29.97R WCI  -4
OWATONNA       LGT SNOW  12   5  73 NW21G29   29.95R WCI  -6
WASECA         LGT SNOW  12   7  79 NW23      29.98R WCI  -7
ALBERT LEA     LGT SNOW  12   7  79 NW16G26   29.94R WCI  -4
$$
MNZ078>079-086>088-094>096-090700-
   Southeast Minnesota

CITY           SKY/WX    TMP DP  RH WIND       PRES   REMARKS
ROCHESTER      LGT SNOW  11   6  81 N21G28    29.90R WCI  -8
6HR MIN TEMP:  11; 6HR MAX TEMP:  13; 6HR PCP: TRACE;

RED WING       CLOUDY    12   1  62 NW9G18    29.96S WCI   0
STANTON        CLOUDY    14   6  71 N18G24    29.95S WCI  -3
DODGE CENTER   CLOUDY    10   7  85 N22G28    29.90S WCI  -9
WINONA         CLOUDY    14   5  67 N9        29.94R WCI   2
AUSTIN         FLURRIES  10   9  92 NW16      29.91S WCI  -7
PRESTON        CLOUDY    10   4  75 N22G28    29.88R WCI  -9
$$
ABBREVIATIONS USED IN REMARKS
   TC - TEMPERATURES IN CELSIUS
  WCI - WIND CHILL INDEX
   HX - HEAT INDEX
  VSB - VISIBILITY
$$



USA.gov is the U.S. government's official web portal to all federal, state and local government web resources and services.